www.pogodaiklimat.ru

Погода и климат >> Архив погоды >> Россия >> Якутия >> Ытык-Кюёль


ПОГОДА в Ытык-Кюёле

  • Прогноз погоды в Ытык-Кюёле
  • Монитор погоды в Ытык-Кюёле

АРХИВ ПОГОДЫ в Ытык-Кюёле

Время (UTC), дата Ветер
(напр.,м/с)
 
Видим.   Явления Облачность Т
(С)
Тd
(С)
f
(%)
Тe
(С)
Тes
(С)
Комфортность P
(гПа)
Po
(гПа)
Тmin
(С)
Tmax
(С)
R
(мм)
R24
(мм)
S
(см)
00 17.01 штиль 0 4000 м дымка 8/0
[Ci fib]
-46.6 -48.5 81 -47 -47 опасность
обморожения
1035.5 1012.2 -46.7 25
03 17.01 штиль 0 4000 м дымка 6/0
[Ci fib]
-44.4 -45.9 85 -44 -44 опасность
обморожения
1034.3 1011.2
06 17.01 штиль 0 4000 м дымка 5/0
[Ci fib]
-42.2 -43.8 84 -42 -42 опасность
обморожения
1032.6 1009.7
09 17.01 штиль 0 20 км дымка 3/0
[Ci fib]
-44.0 -45.9 81 -44 -44 опасность
обморожения
1032.1 1009.0
12 17.01 штиль 0 20 км дымка 3/0
[Ci fib]
-45.5 -46.7 88 -46 -46 опасность
обморожения
1031.4 1008.1 -42.2
15 17.01 штиль 0 20 км 10/0
[Cs]
-41.5 -43.2 83 -42 -42 опасность
обморожения
1029.0 1006.2
18 17.01 штиль 0 20 км 10/0
[Cs]
-41.7 -43.2 85 -42 -42 опасность
обморожения
1028.2 1005.4
21 17.01 штиль 0 20 км 3/0
[Ci fib]
-44.6 -45.9 87 -45 -45 опасность
обморожения
1027.3 1004.3
00 18.01 штиль 0 50 км 10/0
[Cs]
-43.3 -45.1 82 -43 -43 опасность
обморожения
1026.4 1003.4 -45.5 25
03 18.01 штиль 0 50 км 8/0
[Cs]
-42.1 -43.8 83 -42 -42 опасность
обморожения
1025.0 1002.3
06 18.01 штиль 0 50 км 8/0
[Cs]
-40.7 -42.1 86 -41 -41 опасность
обморожения
1024.5 1002.0
09 18.01 штиль 0 20 км 8/0
[Cs]
-42.9 -44.4 85 -43 -43 опасность
обморожения
1024.8 1002.1
12 18.01 штиль 0 20 км 4/0
[Cs]
-44.7 -45.9 88 -45 -45 опасность
обморожения
1025.2 1002.3 -40.7
15 18.01 штиль 0 20 км 8/0
[Cs]
-45.0 -46.7 83 -45 -45 опасность
обморожения
1025.1 1002.1
18 18.01 штиль 0 20 км 8/0
[Cs]
-45.8 -47.5 83 -46 -46 опасность
обморожения
1025.6 1002.5
21 18.01 штиль 0 20 км 8/0
[Cs]
-46.0 -47.5 85 -46 -46 опасность
обморожения
1025.8 1002.6
00 19.01 штиль 0 50 км 5/0
[Cs]
-46.8 -48.5 83 -47 -47 опасность
обморожения
1027.3 1003.9 -46.8 25
06 19.01 штиль 0 50 км 3/0
[Cs]
-41.8 -43.2 86 -42 -42 опасность
обморожения
1027.2 1004.4
09 19.01 штиль 0 20 км 4/0
[Cs]
-42.8 -44.4 84 -43 -43 опасность
обморожения
1028.2 1005.4
12 19.01 штиль 0 20 км 8/0 100 м
[Cs]
-45.3 -46.7 86 -45 -45 опасность
обморожения
1029.1 1005.9 -41.8
15 19.01 штиль 0 20 км 8/0
[Cs]
-46.3 -47.5 87 -46 -46 опасность
обморожения
1028.7 1005.5
18 19.01 штиль 0 20 км 8/0
[Cs]
-46.9 -48.5 84 -47 -47 опасность
обморожения
1028.2 1005.0
21 19.01 штиль 0 20 км 8/0
[Cs]
-47.3 -48.5 87 -47 -47 опасность
обморожения
1027.6 1004.2
00 20.01 штиль 0 50 км 9/0
[Cs]
-46.1 -47.5 86 -46 -46 опасность
обморожения
1026.4 1003.2 -47.3 0.0 25
03 20.01 СВ 1 50 км 10/0
[Cs]
-43.6 -45.1 85 -49 -49 опасность
обморожения
1024.0 1001.1
06 20.01 штиль 0 50 км 10/0
[Cs]
-40.3 -42.1 83 -40 -40 опасность
обморожения
1022.3 999.8
09 20.01 штиль 0 20 км 10/0
[Cs]
-42.0 -43.8 82 -42 -42 опасность
обморожения
1021.9 999.2
12 20.01 штиль 0 20 км 10/0
[Cs]
-43.2 -44.4 88 -43 -43 опасность
обморожения
1021.1 998.2 -40.3
15 20.01 штиль 0 20 км 10/0
[Cs]
-44.6 -45.9 87 -45 -45 опасность
обморожения
1020.4 997.5
18 20.01 штиль 0 20 км 10/0
[Cs]
-44.6 -45.9 87 -45 -45 опасность
обморожения
1019.7 996.9
21 20.01 штиль 0 20 км 10/0
[Cs]
-45.8 -47.5 83 -46 -46 опасность
обморожения
1019.8 996.8
00 21.01 штиль 0 2000 м дымка 10/0
[Cs]
-45.9 -47.5 84 -46 -46 опасность
обморожения
1019.4 996.3 -46.0 26
03 21.01 штиль 0 50 км 8/0
[Ci fib]
-43.6 -45.1 85 -44 -43 опасность
обморожения
1018.1 995.3
06 21.01 штиль 0 50 км 10/0
[Ci fib]
-39.9 -41.0 89 -40 -40 опасность
обморожения
1017.1 994.7
09 21.01 штиль 0 20 км 10/0
[Ci fib]
-41.3 -42.6 87 -41 -41 опасность
обморожения
1018.0 995.4
12 21.01 штиль 0 20 км 10/0
[Ci fib]
-43.3 -45.1 82 -43 -43 опасность
обморожения
1019.1 996.2 -39.9
15 21.01 штиль 0 20 км 10/0
[Ci fib]
-41.6 -43.2 84 -42 -42 опасность
обморожения
1019.7 997.0
18 21.01 штиль 0 20 км 10/0
[Ci fib]
-40.8 -42.6 83 -41 -41 опасность
обморожения
1021.0 998.3
21 21.01 штиль 0 20 км 10/0
[Ci fib]
-39.7 -40.5 92 -40 -40 опасность
обморожения
1022.1 999.6
00 22.01 штиль 0 50 км 10/0
[Ci fib]
-37.6 -39.3 84 -38 -38 опасность
обморожения
1022.9 1000.6 -43.3 26
06 22.01 штиль 0 50 км 10/0
[As op Cs]
-31.5 -32.7 89 -32 -32 опасность
обморожения
1024.3 1002.5
09 22.01 штиль 0 20 км 10/0
[Cs]
-33.5 -34.7 89 -34 -34 опасность
обморожения
1025.9 1003.9
12 22.01 штиль 0 20 км 3/0
[Cs]
-34.3 -35.9 85 -34 -34 опасность
обморожения
1027.4 1005.4 -31.2
15 22.01 ЮВ 1 20 км 4/0
[Ci fib]
-34.5 -35.6 90 -39 -39 опасность
обморожения
1028.9 1006.9

 

Местоположение метеостанции Ытык-Кюёль (Якутия, Россия): широта 62.37 долгота 133.50 высота над уровнем моря 152 м.

В архиве по умолчанию представлена погода в Ытык-Кюёле за последнюю неделю. Архивные данные за месяц целиком и за предыдущие месяцы, начиная с января 2011 года, Вы можете получить, выбрав интересующий диапазон дат из раскрывающегося списка и нажав кнопку "Ввод!".


*Определитесь, кто Вы:
робот инопланетянин человек

Внимание! Время в таблицах - всемирное. Для получения местного времени необходимо прибавить поправку, которая равна 9 ч.

Смотрите также архив погоды в соседних городах и на ближайших метеорологических станциях:

Погода в Чурапче (Якутия, Россия) (60 км)
Погода в Крест-Хальджае (Якутия, Россия) (68 км)
Погода в Охотском Перевозе (Якутия, Россия) (118 км)
Погода в Верхоянском Перевозе (Якутия, Россия) (130 км)
Погода в Теплом Ключе (Якутия, Россия) (175 км)
Погода в Амге (Якутия, Россия) (184 км)
Погода в Намцах (Якутия, Россия) (204 км)
Погода в Якутске (Якутия, Россия) (207 км)
Погода в Томпо (Якутия, Россия) (210 км)
Погода в Усть-Мае (Якутия, Россия) (230 км)

Пояснения к столбцам:

Ветер - указаны скорость ветра в м/с - средняя за 10 мин, порывы в срок и между сроками (в фигурных скобках) и направление, откуда дует ветер: С - северный, СВ - северо-восточный, В - восточный, ЮВ - юго-восточный, Ю - южный, ЮЗ - юго-западный, З - западный, СЗ - северо-западный.
Видимость - горизонтальная дальность видимости в метрах или километрах. При видимости от 1 до 10 км при отсутствии осадков обычно наблюдается дымка, при ухудшении видимости до 1 км и менее - туман. В сухую погоду видимость может ухудшаться дымом, пылью или мглою.
Явления - указаны атмосферные явления, наблюдавшиеся в срок или в последний час перед сроком; фигурными скобками обозначены явления, наблюдавшиеся между сроками (за 1-3 часа до срока); квадратными скобками обозначены град или гололедные отложения с указанием их диаметра в мм.
Облачность - указаны через наклонную черту общая и нижняя облачность в баллах и высота нижней границы облаков в метрах; квадратными скобками обозначены формы облаков: Ci - перистые, Cs - перисто-слоистые, Cc - перисто-кучевые, Ac - высококучевые, As - высокослоистые, Sc - слоисто-кучевые, Ns - слоисто-дождевые, Cu - кучевые, Cb - кучево-дождевые. Подробнее классификацию облаков см. в Атласе облаков (PDF).
T - Температура воздуха - температура, измеренная на высоте 2 м над землей.
Td - Температура точки росы - температура, при понижении до которой содержащийся в воздухе водяной пар достигнет насыщения.
f - Относительная влажность воздуха - влажноcть воздуха, измеренная на высоте 2 м над землей.
Te - Эффективная температура - температура, которую ощущает одетый по сезону человек в тени. Характеристика душности погоды. При расчете учитывается влияние влажности воздуха и скорости ветра на теплоощущения человека.
Tes - Эффективная температура на солнце - температура, которую ощущает человек, с поправкой на солнечный нагрев. Характеристика знойности погоды. Зависит от высоты солнца над горизонтом, облачности и скорости ветра. Ночью, в пасмурную погоду, а также при ветре 12 м/с и более поправка равна нулю.
P - Атмосферное давление - приведенное к уровню моря атмосферное давление.
Po - Атмосферное давление - измеренное на уровне метеостанции атмосферное давление.
Tmin - Минимальная температура - минимум температуры воздуха на высоте 2 м над землей.
Tmax - Максимальная температура - максимум температуры воздуха на высоте 2 м над землей.
R - Количество осадков - Количество выпавших осадков за период времени, мм. При наведении курсора мыши на число - период времени, за который выпало указанное количество осадков.
R24 - Количество осадков - Количество выпавших осадков за 24 часа, мм.
S - Снежный покров - Высота снежного покрова, см. При наведении курсора мыши на число - состояние снежного покрова и степень покрытия местности в баллах.